User: anonymous   Login
Location: ActonStarParty
(42.4766°N, 71.4538°W)
Time: 02:12:56
(UTC-04:00)
Language:

Cosmos 1300 - Orbit

View from above orbital plane
View from above orbital plane
View from above satellite
View from above satellite

Ground track
Ground track

The orbit data is extracted from the following two-line orbital elements,

1 12785U 81082A   15183.88166255  .00001731  00000-0  92167-4 0  9992
2 12785 082.5049 059.4847 0001673 135.6414 289.6337 15.14612229843489
Epoch (UTC): 02 July 2015 21:09:35
Eccentricity: 0.0001673
inclination: 82.5049°
perigee height: 521 km
apogee height: 523 km
right ascension of ascending node: 59.4847°
argument of perigee: 135.6414°
revolutions per day: 15.14612229
mean anomaly at epoch: 289.6337°
orbit number at epoch: 84348

The dashed part of the orbit path shows where the satellite is in the earth's shadow,  

DLR